Location: ?????
(32.7281°N, 34.9563°E)
Time: 12:37:11
(UTC+00:00)

H-2A R/B - Pass Details

Date: 29 October 2020
Orbit: 733 x 837 km, 98.2° (Epoch: 26 November)

Event Time Altitude Azimuth Distance (km) Brightness Sun altitude
Exits shadow 17:56:29 16° 234° (SW) 2,013 4.5 -39.3°
Maximum altitude 17:58:46 21° 266° (W) 1,785 4.4 -39.8°
Drops below altitude 10° 18:02:48 10° 314° (NW) 2,450 5.1 -40.6°
Sets 18:05:46 0° 330° (NNW) 3,391 5.8 -41.2°
